Regional Weather Roundup
Issued by NWS

Home | Current Version | Previous Version | Graphics & Text | Print | Product List | Glossary Off
Versions: 1 2 3 4 5 6 7 8 9 10 11 12 13 14 15 16 17 18 19 20 21 22 23 24 25 26 27 28 29 30 31 32 33 34 35 36 37 38 39 40 41 42 43 44 45 46 47 48 49 50

516
ASUS43 KTOP 300059
RWRKS

WEATHER ROUNDUP FOR KANSAS
NATIONAL WEATHER SERVICE GOODLAND KS
800 PM CDT MON AUG 29 2016

NOTE:  "FAIR" INDICATES FEW OR NO CLOUDS BELOW 12,000 FEET WITH NO
SIGNIFICANT WEATHER AND/OR OBSTRUCTIONS TO VISIBILITY.

KSZ001>006-013>018-027>032-041>047-300200-
NORTHWEST KANSAS

CITY           SKY/WX    TMP DP  RH WIND       PRES   REMARKS
GOODLAND       CLOUDY    73  61  65 SE6       30.25R
HAYS           MOCLDY    70  61  73 CALM      30.16F
HILL CITY      CLOUDY    72  66  81 SE3       30.19S
RUSSELL        LGT RAIN  69  67  93 S6        30.15S
$$

KSZ061>065-074>080-084>089-300200-
SOUTHWEST KANSAS

CITY           SKY/WX    TMP DP  RH WIND       PRES   REMARKS
DODGE CITY     MOCLDY    72  69  90 E9        30.18F
ELKHART          N/A     71  62  73 S3          N/A
GARDEN CITY    CLOUDY    73  64  73 N5        30.19S
GREAT BEND     CLOUDY    70  63  78 CALM      30.15F
LIBERAL        PTCLDY    72  64  78 NW3       30.19F
$$

KSZ066>073-081>083-090>101-300200-
SOUTHEAST KANSAS

CITY           SKY/WX    TMP DP  RH WIND       PRES   REMARKS
CHANUTE        PTCLDY    78  70  76 N5        30.10R
COFFEYVILLE    TSTM      78  72  81 NW13      30.09R
HUTCHINSON     LGT RAIN  81  69  67 CALM      30.13S
NEWTON         MOCLDY    77  69  76 NE3       30.14S
PARSONS        CLOUDY    77  74  90 SW5       30.10R
WICHITA INTL   MOCLDY    81  69  67 S3        30.11S
WICHITA JABRA  PTCLDY    80  69  69 E3        30.11F
WINFIELD       CLOUDY    82  69  64 E3        30.11S
$$

KSZ007>012-019>026-033>040-048>060-102>105-300200-
NORTHEAST KANSAS

CITY           SKY/WX    TMP DP  RH WIND       PRES   REMARKS
CONCORDIA      CLOUDY    72  67  84 NW6       30.16R
EMPORIA        CLOUDY    77  74  90 SE3       30.12S
LAWRENCE       CLEAR     79  75  87 N5        30.11R
MANHATTAN      MOCLDY    77  68  73 W3        30.12S
OLATHE IND     CLEAR     80  73  79 S3        30.13R
OLATHE EXE     CLEAR     82  70  66 S3        30.12R
SALINA         MOCLDY    74  71  91 NW6       30.14R
TOPEKA BILLARD PTCLDY    80  73  79 CALM      30.11R
TOPEKA FORBES  CLOUDY    82  74  76 CALM      30.11S
$$




USA.gov is the U.S. government's official web portal to all federal, state and local government web resources and services.